This is the latest recevied weather packets stored in our database for station/object K1WJY. If no packets are shown the sender has not sent any weather packets the latest 1 day(s).
| Time | Temp. | Humidity | Pressure | Rain* | Wind** | Luminosity | Snow |
|---|---|---|---|---|---|---|---|
| 1778100800 | 12.22° C | 96% | 1011.7 hPa | 0 mm | - | 26 W/m² | - |
| 1778099286 | 12.78° C | 95% | 1011.2 hPa | 0 mm | - | 55 W/m² | - |
| 1778097466 | 12.78° C | 94% | 1011.1 hPa | 0 mm | - | 94 W/m² | - |
| 1778096254 | 12.78° C | 94% | 1011.2 hPa | 0 mm | - | 109 W/m² | - |
| 1778095647 | 12.78° C | 93% | 1011.4 hPa | 0 mm | - | 144 W/m² | - |
| 1778095344 | 12.78° C | 93% | 1011.6 hPa | 0 mm | - | 136 W/m² | - |
| 1778092919 | 12.78° C | 94% | 1012 hPa | 0 mm | - | 115 W/m² | - |
| 1778092009 | 12.22° C | 95% | 1011.9 hPa | 0 mm | - | 128 W/m² | - |
| 1778091706 | 12.22° C | 95% | 1012 hPa | 0 mm | - | 123 W/m² | - |
| 1778091404 | 12.22° C | 95% | 1012.1 hPa | 0 mm | - | 101 W/m² | - |
| 1778090798 | 12.22° C | 95% | 1012.4 hPa | 0 mm | - | 111 W/m² | - |
| 1778089282 | 12.22° C | 95% | 1012.4 hPa | 0 mm | - | 128 W/m² | - |
| 1778088676 | 12.22° C | 95% | 1012.6 hPa | 0 mm | - | 128 W/m² | - |
| 1778085951 | 13.33° C | 93% | 1012.9 hPa | 0 mm | - | 203 W/m² | - |
| 1778081206 | 12.78° C | 95% | 1013.1 hPa | 0 mm | - | 203 W/m² | - |
| 1778079086 | 12.22° C | 97% | 1013.9 hPa | 0 mm | - | 164 W/m² | - |
| 1778078480 | 12.22° C | 98% | 1014 hPa | 0 mm | - | 136 W/m² | - |
| 1778077272 | 12.22° C | 98% | 1013.9 hPa | 0 mm | - | 137 W/m² | - |
| 1778072726 | 12.22° C | 96% | 1013.3 hPa | 0 mm | - | 106 W/m² | - |
| 1778071819 | 12.22° C | 96% | 1013.4 hPa | 0 mm | - | 199 W/m² | - |
| 1778071517 | 12.22° C | 96% | 1013.6 hPa | 0 mm | - | 187 W/m² | - |
| 1778070610 | 12.22° C | 96% | 1013.5 hPa | 0 mm | - | 122 W/m² | - |
| 1778070005 | 12.78° C | 95% | 1013.5 hPa | 0 mm | - | 127 W/m² | - |
| 1778069398 | 12.22° C | 95% | 1013.8 hPa | 0 mm | - | 145 W/m² | - |
| 1778069096 | 12.22° C | 95% | 1013.8 hPa | 0 mm | - | 121 W/m² | - |
* Rain latest hour (hover to see other rain measurements)
** Current wind speed in m/s (hover to see current wind gust speed)